This is the latest recevied weather packets stored in our database for station/object DL2ARH-7. If no packets are shown the sender has not sent any weather packets the latest 10 day(s).
| Time | Temp. | Humidity | Pressure | Rain* | Wind** | Luminosity | Snow |
|---|---|---|---|---|---|---|---|
| 1787747415 | 18.33° C | 86% | 1018.8 hPa | 0 mm | - | - | - |
| 1787747348 | 18.33° C | 86% | 1018.8 hPa | 0 mm | - | - | - |
| 1787747148 | 18.33° C | 86% | 1018.8 hPa | 0 mm | - | - | - |
| 1787747082 | 18.33° C | 86% | 1018.8 hPa | 0 mm | - | - | - |
| 1787746883 | 17.78° C | 86% | 1018.8 hPa | 0 mm | - | - | - |
| 1787746816 | 17.78° C | 86% | 1018.8 hPa | 0 mm | - | - | - |
| 1787746749 | 18.33° C | 86% | 1018.8 hPa | 0 mm | - | - | - |
| 1787746619 | 18.33° C | 85% | 1018.8 hPa | 0 mm | - | - | - |
| 1787746550 | 18.33° C | 85% | 1018.9 hPa | 0 mm | - | - | - |
| 1787746483 | 18.33° C | 85% | 1018.7 hPa | 0 mm | - | - | - |
| 1787746416 | 18.33° C | 85% | 1018.8 hPa | 0 mm | - | - | - |
| 1787746351 | 18.89° C | 85% | 1018.8 hPa | 0 mm | - | - | - |
| 1787746284 | 18.89° C | 85% | 1018.7 hPa | 0 mm | - | - | - |
| 1787746150 | 18.89° C | 85% | 1018.7 hPa | 0 mm | - | - | - |
| 1787745951 | 18.89° C | 85% | 1018.7 hPa | 0 mm | - | - | - |
| 1787745818 | 18.33° C | 86% | 1018.8 hPa | 0 mm | - | - | - |
| 1787745685 | 18.33° C | 86% | 1018.7 hPa | 0 mm | - | - | - |
| 1787745552 | 18.33° C | 86% | 1018.7 hPa | 0 mm | - | - | - |
| 1787745486 | 18.33° C | 86% | 1018.7 hPa | 0 mm | - | - | - |
| 1787745353 | 18.33° C | 86% | 1018.5 hPa | 0 mm | - | - | - |
| 1787745154 | 18.33° C | 87% | 1018.6 hPa | 0 mm | - | - | - |
| 1787744754 | 18.33° C | 87% | 1018.6 hPa | 0 mm | - | - | - |
| 1787744688 | 18.33° C | 87% | 1018.7 hPa | 0 mm | - | - | - |
| 1787744622 | 18.33° C | 86% | 1018.7 hPa | 0 mm | - | - | - |
| 1787744554 | 22.78° C | 87% | 1018.6 hPa | 0 mm | - | - | - |
* Rain latest hour (hover to see other rain measurements)
** Current wind speed in m/s (hover to see current wind gust speed)